TimeCST,TemperatureF,Dew PointF,Humidity,Sea Level PressureIn,VisibilityMPH,Wind Direction,Wind SpeedMPH,Gust SpeedMPH,PrecipitationIn,Events,Conditions,WindDirDegrees,DateUTC
12:53 AM,46.0,35.1,66,30.37,10.0,NE,8.1,-,N/A,,Mostly Cloudy,50,2013-01-04 06:53:00
1:53 AM,44.1,34.0,68,30.37,10.0,NE,9.2,-,N/A,,Clear,50,2013-01-04 07:53:00
2:53 AM,44.1,35.1,71,30.38,10.0,NNE,6.9,-,N/A,,Mostly Cloudy,30,2013-01-04 08:53:00
3:53 AM,44.1,35.1,71,30.39,10.0,NE,9.2,-,N/A,,Overcast,40,2013-01-04 09:53:00
4:53 AM,44.1,34.0,68,30.38,10.0,NE,11.5,-,N/A,,Overcast,40,2013-01-04 10:53:00
5:53 AM,44.6,33.8,66,30.40,10.0,NNE,12.7,-,N/A,,Overcast,30,2013-01-04 11:53:00
6:53 AM,44.1,33.1,65,30.44,10.0,NNE,9.2,-,N/A,,Overcast,20,2013-01-04 12:53:00
7:53 AM,44.1,33.1,65,30.48,10.0,North,9.2,-,N/A,,Overcast,10,2013-01-04 13:53:00
8:53 AM,45.0,34.0,65,30.49,10.0,NNE,12.7,-,N/A,,Overcast,20,2013-01-04 14:53:00
9:53 AM,45.0,34.0,65,30.49,10.0,NNE,8.1,18.4,N/A,,Overcast,30,2013-01-04 15:53:00
10:53 AM,44.1,37.9,79,30.49,10.0,NE,5.8,-,0.00,,Overcast,40,2013-01-04 16:53:00
11:53 AM,46.9,36.0,66,30.45,10.0,NNE,13.8,-,N/A,,Overcast,30,2013-01-04 17:53:00
12:53 PM,46.0,36.0,68,30.42,10.0,NNE,11.5,-,0.01,,Overcast,30,2013-01-04 18:53:00
1:53 PM,48.0,35.1,61,30.39,10.0,NNE,9.2,-,N/A,,Overcast,20,2013-01-04 19:53:00
2:53 PM,48.9,35.1,59,30.37,10.0,NNE,9.2,-,N/A,,Overcast,20,2013-01-04 20:53:00
3:53 PM,48.9,34.0,56,30.38,10.0,NNE,11.5,-,N/A,,Overcast,20,2013-01-04 21:53:00
4:53 PM,48.0,34.0,58,30.38,10.0,NNE,10.4,-,N/A,,Overcast,20,2013-01-04 22:53:00
5:53 PM,46.9,35.1,63,30.39,10.0,NE,8.1,-,N/A,,Overcast,40,2013-01-04 23:53:00
6:53 PM,46.9,35.1,63,30.40,10.0,NNE,9.2,-,N/A,,Overcast,20,2013-01-05 00:53:00
7:53 PM,46.0,36.0,68,30.39,10.0,NE,11.5,-,N/A,,Overcast,40,2013-01-05 01:53:00
8:53 PM,46.9,36.0,66,30.38,10.0,NE,10.4,-,N/A,,Overcast,40,2013-01-05 02:53:00
9:53 PM,46.9,35.1,63,30.34,10.0,NE,10.4,-,N/A,,Overcast,40,2013-01-05 03:53:00
10:53 PM,46.0,37.0,71,30.36,10.0,NNE,5.8,-,0.00,Rain,Light Rain,20,2013-01-05 04:53:00
11:53 PM,46.0,37.0,71,30.36,10.0,East,4.6,-,0.00,,Overcast,80,2013-01-05 05:53:00